星链-34644 (STARLINK-34644)

导读 | 豆包AI

STARLINK-34664卫星由美国于2025年7月16日发射,属于SpaceX星链(Starlink)项目卫星,星链项目旨在构建全球卫星互联网星座,为全球偏远地区、海洋和航空等场景提供高速互联网接入服务。该卫星的成功发射进一步扩充了星链星座的在轨卫星数量,提升了星座整体服务覆盖能力与网络稳定性。

Basic Information
目录编号:
64812
目录名称:
STARLINK-34644
国际标识:
2025-150Y
轨道中心:
EARTH
卫星名称:
星链-34644
卫星全名:
星链-34644 (STARLINK-34644)
卫星状态:
在轨 (已飞行241 天)
发射日期:
2025-07-16 UTC
国别 :
美国 (US)
星等 :
--
Orbit Information
数据来源 国际轨道数据 AOE轨道数据
星历时间 2026-03-14T15:02:53+0800
10小时前
查看轨道信息
2026-03-14T04:00:00+0800
21小时前
查看轨道信息
半长轴 6950.154km 6950.201km
偏心率 0.0003534 0.0003554
轨道倾角 70.002° 70.001°
近地点辐角 270.253° 273.709°
升交点赤经 122.913° 124.072°
平近点角 89.823° 123.978°
近地点 569.56km 569.593km
远地点 574.474km 574.535km
周期 96.106分钟 96.107分钟
每日圈数 14.983427 14.983274
Detailed Information
固有亮度:
5
最大亮度:
2.5
卫星平台:
Starlink V1.0
覆盖范围:
全球
运营商:
太空探索技术公司
运营商所在国:
美国
制造商(研发单位):
太空探索技术公司
制造商所在国:
美国
使用方式:
暂无
Satellite Introduction
Starlink 计划是 SpaceX 推出的全球卫星互联网项目,通过发射低轨道卫星,为全球尤其是偏远地区提供高速、低延迟的互联网服务。自 2019 年起,Starlink 已部署数千颗卫星,旨在缩小全球数字鸿沟,推动互联网普及。该项目还为军事、航空等行业提供通信支持,带来广泛经济效益。
2D Orbit Map
3D Orbit Map
Orbit Altitude Analysis Chart
Orbit Inclination Analysis Chart
Orbit Comprehensive Analysis Chart
View Comprehensive Chart